Weather reports worldwide

Advertisment
Cagliari/Elmas, Italy (16560): temperature & dewpoint: 20.10.2020 22:00:00 - 26.10.2020 22:00:00 (CET)Cagliari/Elmas, Italy (16560): wind speed: 20.10.2020 22:00:00 - 26.10.2020 22:00:00 (CET)Cagliari/Elmas, Italy (16560): wind direction: 20.10.2020 22:00:00 - 26.10.2020 22:00:00 (CET)Cagliari/Elmas, Italy (16560): reduced air pressure: 20.10.2020 22:00:00 - 26.10.2020 22:00:00 (CET)Cagliari/Elmas, Italy (16560): visibility: 20.10.2020 22:00:00 - 26.10.2020 22:00:00 (CET)Cagliari/Elmas, Italy (16560): precipitation: 20.10.2020 22:00:00 - 26.10.2020 22:00:00 (CET)
Date & Time tt [°C] td [°C] ff [km/h] ff [kn] dd ppp [hPa] vv [km] rr [mm]
26.10.2020 22:00:00 14,3 14,0 22 12 N 1012,9 9 0,0
26.10.2020 21:00:00 16,0 13,0 9 5 W - 10 -
26.10.2020 20:00:00 16,0 14,0 16 9 NW - 9 -
26.10.2020 19:00:00 16,1 15,6 15 8 N 1011,3 8 -
26.10.2020 18:00:00 16,0 16,0 28 15 WNW - 4,0 -
26.10.2020 17:00:00 22,0 14,0 26 14 SW - 10 -
26.10.2020 16:00:00 23,0 13,0 22 12 WSW - 10 -
26.10.2020 15:00:00 24,0 12,0 21 11 W - 10 -
26.10.2020 14:00:00 24,0 13,0 21 11 WSW - 10 -
26.10.2020 13:00:00 22,4 16,8 24 13 S 1011,2 10 -
26.10.2020 12:00:00 22,0 16,0 26 14 S - 10 -
26.10.2020 11:00:00 21,0 16,0 18 10 S - 10 -
26.10.2020 10:00:00 20,7 16,3 11 6 SSE 1013,6 10 0,0
26.10.2020 09:00:00 15,0 15,0 4 2 - - 10 -
26.10.2020 08:00:00 12,0 12,0 5 3 NNW - 10 -
26.10.2020 07:00:00 11,7 11,7 2 1 - 1013,8 2,5 -
26.10.2020 06:00:00 11,0 11,0 4 2 ENE - 10 -
26.10.2020 05:00:00 - - - - - - - -
26.10.2020 04:00:00 11,8 11,6 5 3 N 1014,8 - 0,0
26.10.2020 03:00:00 13,0 13,0 2 1 - - 10 -
26.10.2020 02:00:00 12,0 12,0 8 4 NNE - 10 -
26.10.2020 01:00:00 13,0 12,2 4 2 - 1016,8 10 -
26.10.2020 00:00:00 13,0 12,0 5 3 N - 10 -
25.10.2020 23:00:00 14,0 13,0 2 1 - - 10 -
25.10.2020 22:00:00 14,0 12,5 5 3 NE 1017,6 10 0,0
25.10.2020 21:00:00 17,0 14,0 2 1 - - 10 -
25.10.2020 20:00:00 17,0 14,0 5 3 NNW - 10 -
25.10.2020 19:00:00 18,4 14,2 8 4 NW 1017,9 10 -
25.10.2020 18:00:00 - - - - - - - -
25.10.2020 17:00:00 21,0 14,0 13 7 NW - 10 -
25.10.2020 16:00:00 21,5 13,3 16 9 NW 1017,5 10 0,0
25.10.2020 15:00:00 22,0 13,0 15 8 WNW - 10 -
25.10.2020 14:00:00 22,0 11,0 16 9 NW - 10 -
25.10.2020 13:00:00 22,5 11,5 13 7 W 1018,8 10 -
25.10.2020 12:00:00 20,0 14,0 8 4 SW - 10 -
25.10.2020 11:00:00 21,0 15,0 8 4 NW - 10 -
25.10.2020 10:00:00 18,8 14,9 4 2 - 1020,3 10 0,0
25.10.2020 09:00:00 15,0 14,0 4 2 - - 10 -
25.10.2020 08:00:00 13,0 13,0 5 3 NW - 10 -
25.10.2020 07:00:00 12,0 12,0 5 3 WNW 1019,7 10 -
25.10.2020 06:00:00 11,0 11,0 5 3 NNW - 10 -
25.10.2020 05:00:00 11,0 11,0 9 5 NNW - 10 -
25.10.2020 04:00:00 11,2 11,2 8 4 NNW 1019,7 10 0,0
25.10.2020 03:00:00 12,0 12,0 9 5 NNW - 10 -
25.10.2020 02:00:00 13,0 13,0 5 3 N - 10 -
25.10.2020 01:00:00 - - - - - - - -
25.10.2020 00:00:00 14,0 13,0 5 3 N - 10 -
24.10.2020 23:00:00 15,0 13,0 5 3 NNE - 10 -
24.10.2020 22:00:00 16,1 13,6 4 2 NNE 1021,4 10 0,0
24.10.2020 21:00:00 16,0 13,0 8 4 ENE - 10 -
24.10.2020 20:00:00 17,0 13,0 8 4 N - 10 -
24.10.2020 19:00:00 17,5 12,7 9 5 N 1021,2 10 -
24.10.2020 18:00:00 19,0 12,0 9 5 NNW - 10 -
24.10.2020 17:00:00 21,0 11,0 18 10 N - 10 -
24.10.2020 16:00:00 22,7 9,9 24 13 NNW 1020,4 10 0,0
24.10.2020 15:00:00 24,0 9,0 22 12 NW - 10 -
24.10.2020 14:00:00 24,0 11,0 28 15 NW - 10 -
24.10.2020 13:00:00 23,8 11,0 22 12 NW 1020,8 10 -
24.10.2020 12:00:00 23,0 13,0 22 12 NW - 10 -
24.10.2020 11:00:00 23,0 14,0 22 12 WNW - 10 -
24.10.2020 10:00:00 21,2 16,4 15 8 WNW 1022,0 10 0,0
24.10.2020 09:00:00 19,0 17,0 8 4 NE - 10 -
24.10.2020 08:00:00 19,0 17,0 8 4 W - 10 -
24.10.2020 07:00:00 18,6 17,4 2 1 - 1021,2 10 -
24.10.2020 06:00:00 19,0 17,0 8 4 NW - 10 -
24.10.2020 05:00:00 20,0 17,0 11 6 - - 10 -
24.10.2020 04:00:00 19,9 16,1 11 6 NW 1020,9 10 0,0
24.10.2020 03:00:00 20,0 17,0 16 9 WNW - 10 -
24.10.2020 02:00:00 21,0 18,0 11 6 NW - 10 -
24.10.2020 01:00:00 20,2 17,9 8 4 NNW 1021,8 10 -
24.10.2020 00:00:00 20,0 17,0 13 7 NNW - 10 -
23.10.2020 23:00:00 21,0 17,0 15 8 NNW - 10 -
23.10.2020 22:00:00 20,0 17,5 13 7 NNW 1021,3 10 0,0
23.10.2020 21:00:00 21,0 18,0 15 8 N - 10 -
23.10.2020 20:00:00 22,0 17,0 16 9 NNW - 10 -
23.10.2020 19:00:00 21,7 16,9 15 8 NNW 1020,1 10 -
23.10.2020 18:00:00 21,0 19,0 2 1 - - 10 -
23.10.2020 17:00:00 22,0 19,0 5 3 S - 10 -
23.10.2020 16:00:00 22,5 19,1 8 4 S 1019,5 10 0,0
23.10.2020 15:00:00 23,0 19,0 8 4 SSW - 10 -
23.10.2020 14:00:00 23,0 19,0 13 7 S - 10 -
23.10.2020 13:00:00 23,6 19,3 13 7 S 1019,6 10 -
23.10.2020 12:00:00 23,0 19,0 15 8 S - 10 -
23.10.2020 11:00:00 23,0 19,0 16 9 S - 10 -
23.10.2020 10:00:00 22,1 19,4 15 8 SSE 1020,7 10 0,0
23.10.2020 09:00:00 22,0 19,0 13 7 S - 10 -
23.10.2020 08:00:00 22,0 19,0 18 10 SSE - 10 -
23.10.2020 07:00:00 21,2 19,1 18 10 SSE 1019,7 10 -
23.10.2020 06:00:00 21,0 19,0 18 10 SSE - 10 -
23.10.2020 05:00:00 21,0 19,0 24 13 SSE - 10 -
23.10.2020 04:00:00 21,0 19,3 21 11 SSE 1019,5 10 0,0
23.10.2020 03:00:00 21,0 19,0 21 11 SE - 10 -
23.10.2020 02:00:00 21,0 19,0 22 12 SSE - 10 -
23.10.2020 01:00:00 21,1 19,5 24 13 SSE 1020,4 10 -
23.10.2020 00:00:00 21,0 19,0 26 14 SSE - 10 -
22.10.2020 23:00:00 21,0 19,0 28 15 SE - 10 -
22.10.2020 22:00:00 21,1 19,2 28 15 SE 1020,8 10 0,0
22.10.2020 21:00:00 21,0 19,0 28 15 SE - 10 -
22.10.2020 20:00:00 21,0 19,0 22 12 SE - 10 -
22.10.2020 19:00:00 21,3 17,8 22 12 SE 1020,6 10 -
22.10.2020 18:00:00 22,0 16,0 21 11 SE - 10 -
22.10.2020 17:00:00 22,0 17,0 22 12 SSE - 10 -
22.10.2020 16:00:00 22,6 16,5 22 12 SSE 1020,3 10 0,0
22.10.2020 15:00:00 23,0 16,0 26 14 SSE - 10 -
22.10.2020 14:00:00 23,0 16,0 26 14 SSE - 10 -
22.10.2020 13:00:00 23,5 16,4 22 12 SSE 1020,9 10 -
22.10.2020 12:00:00 23,0 17,0 22 12 SSE - 10 -
22.10.2020 11:00:00 23,0 17,0 26 14 SSE - 10 -
22.10.2020 10:00:00 22,6 16,7 26 14 SSE 1022,2 10 0,0
22.10.2020 09:00:00 22,0 18,0 22 12 SSE - 10 -
22.10.2020 08:00:00 21,0 18,0 21 11 SSE - 10 -
22.10.2020 07:00:00 20,0 18,2 16 9 SSE 1020,8 10 -
22.10.2020 06:00:00 20,0 18,0 16 9 SSE - 10 -
22.10.2020 05:00:00 20,0 18,0 18 10 SE - 10 -
22.10.2020 04:00:00 19,9 17,8 21 11 SE 1020,5 10 0,0
22.10.2020 03:00:00 20,0 18,0 13 7 SSE - 10 -
22.10.2020 02:00:00 20,0 17,0 21 11 SE - 10 -
22.10.2020 01:00:00 20,1 17,1 24 13 SE 1020,8 10 -
22.10.2020 00:00:00 20,0 18,0 26 14 SE - 10 -
21.10.2020 23:00:00 21,0 18,0 21 11 SE - 10 -
21.10.2020 22:00:00 20,5 18,4 18 10 SSE 1021,4 10 0,0
21.10.2020 21:00:00 20,0 18,0 16 9 SE - 10 -
21.10.2020 20:00:00 20,0 18,0 24 13 SE - 10 -
21.10.2020 19:00:00 20,7 17,7 26 14 SE 1020,2 10 -
21.10.2020 18:00:00 21,0 17,0 24 13 SE - 10 -
21.10.2020 17:00:00 22,0 17,0 28 15 SSE - 10 -
21.10.2020 16:00:00 22,2 17,3 24 13 SSE 1020,0 10 0,0
21.10.2020 15:00:00 23,0 18,0 26 14 SSE - 10 -
21.10.2020 14:00:00 23,0 18,0 24 13 SSE - 10 -
21.10.2020 13:00:00 23,4 16,8 24 13 SSE 1020,7 10 -
21.10.2020 12:00:00 23,0 18,0 24 13 SSE - 10 -
21.10.2020 11:00:00 23,0 17,0 26 14 SSE - 10 -
21.10.2020 10:00:00 21,8 17,1 26 14 SSE 1021,5 10 0,0
21.10.2020 09:00:00 21,0 17,0 26 14 SSE - 10 -
21.10.2020 08:00:00 20,0 16,0 29 16 SE - 10 -
21.10.2020 07:00:00 19,3 16,0 28 15 SE 1020,0 10 -
21.10.2020 06:00:00 19,0 16,0 28 15 SE - 10 -
21.10.2020 05:00:00 19,0 16,0 22 12 SE - 8 -
21.10.2020 04:00:00 18,6 15,2 24 13 SSE 1020,3 10 0,0
21.10.2020 03:00:00 - - - - - - - -
21.10.2020 02:00:00 19,0 14,0 24 13 SE - 10 -
21.10.2020 01:00:00 18,6 14,0 24 13 SE 1021,6 10 -
21.10.2020 00:00:00 18,0 14,0 24 13 SE - 10 -
20.10.2020 23:00:00 18,0 13,0 24 13 SE - 10 -
20.10.2020 22:00:00 18,3 12,8 21 11 SSE 1022,4 10 0,0

tt = temperature
td = dewpoint
ff = wind speed
dd = wind direction
ppp = reduced air pressure
vv = visibility
rr = precipitation

Next stations